Regional Weather Roundup
Issued by NWS Upton, NY

Current Version | Previous Version | Text Only | Print | Product List | Glossary Off
Versions: 1 2 3 4 5 6 7 8 9 10 11 12 13 14 15 16 17 18 19 20 21 22 23 24 25 26 27 28 29 30 31 32 33 34 35 36 37 38 39 40 41 42 43 44 45 46 47 48 49 50
522 ASUS41 KOKX 272108 RWROKX REGIONAL WEATHER ROUNDUP NATIONAL WEATHER SERVICE NEW YORK NY 500 PM EDT SAT MAY 27 2017 NOTE: "FAIR" INDICATES FEW OR NO CLOUDS BELOW 12,000 FEET WITH NO SIGNIFICANT WEATHER AND/OR OBSTRUCTIONS TO VISIBILITY. NYZ071-072-176-178-NJZ106-104-272200- NEW YORK CITY METRO AREA CITY SKY/WX TMP DP RH WIND PRES REMARKS Central Park CLOUDY 71 55 56 E3 29.89S Wall St Helipt CLOUDY 70 55 60 CALM 29.88S Bronx Bot Gard N/A 72 54 53 E1 29.89F LaGuardia APRT CLOUDY 70 55 59 S9 29.86S Kennedy INTL CLOUDY 66 58 75 S13 29.88S Breezy Point N/A 61 N/A N/A S12 N/A Newark/Liberty CLOUDY 73 54 51 SW8 29.86S Teterboro CLOUDY 73 55 53 CALM 29.85F $$ NYZ177-179-078>081-272200- LONG ISLAND NEW YORK CITY SKY/WX TMP DP RH WIND PRES REMARKS Jones Beach N/A 61 N/A N/A S5 N/A Matinecock PT N/A 63 N/A N/A E3 N/A Farmingdale CLOUDY 63 56 78 S10 29.89R MacArthur/ISP CLOUDY 62 55 77 SE9 29.89S Shirley CLOUDY 61 53 75 SE6 29.90S Mt Sinai Harb N/A N/A N/A N/A S8 N/A Westhampton CLOUDY 62 51 67 SE7 29.92S East Hampton N/A 60 49 65 S7 29.91R Montauk N/A 65 51 60 VRB3 29.92R $$ NYZ052-065-067-272200- HUDSON VALLEY CITY SKY/WX TMP DP RH WIND PRES REMARKS White Plains CLOUDY 67 54 63 SE5 29.87S Larchmont Harb N/A 61 N/A N/A N8 N/A Croton O-T Hud N/A 70 N/A N/A MISG N/A Newburgh CLOUDY 68 57 68 CALM 29.89R Montgomery CLOUDY 69 57 65 N9 29.87R Poughkeepsie CLOUDY 70 53 54 CALM 29.86R Albany CLOUDY 71 49 45 VRB3 29.87S $$ NJZ001-105-106-008-010-013-015-019>022-104-272200- NEW JERSEY CITY SKY/WX TMP DP RH WIND PRES REMARKS Newark/Liberty CLOUDY 73 54 51 SW8 29.86S Teterboro CLOUDY 73 55 53 CALM 29.85F Caldwell CLOUDY 73 53 49 NW5 29.87F Somerville CLOUDY 73 55 53 VRB3 29.86R Linden CLOUDY 71 55 56 W8 29.87S Perth Amboy N/A 70 N/A N/A W9 N/A Sussex CLOUDY 70 56 61 CALM 29.89S Andover N/A 69 56 62 CALM 29.88S Trenton PTSUNNY 72 56 57 W7 29.87F Millville LGT RAIN 64 62 93 NW7 29.91R Atlantic City NOT AVBL Wrightstown CLOUDY 73 57 56 SW8 29.85S Toms River CLOUDY 68 58 70 S7 29.89S Belmar CLOUDY 68 56 65 S6 29.89S $$ PAZ047>061-062-071-272200- EASTERN PENNSYLVANIA CITY SKY/WX TMP DP RH WIND PRES REMARKS Philadelphia CLOUDY 71 55 56 SW12 29.90R Allentown MOSUNNY 73 52 47 W5 29.88S Scranton CLOUDY 69 54 58 CALM 29.88F $$ CTZ002-004>006-009-010-012-RIZ004-006-007-MAZ004-011-015-272200- SOUTHERN NEW ENGLAND IN CT CITY SKY/WX TMP DP RH WIND PRES REMARKS Bradley INTL PTSUNNY 68 50 52 E5 29.87F Hartford CLOUDY 69 51 52 E3 29.87S Danbury CLOUDY 64 56 75 SE8 29.89R Wtrbury/Oxford PTSUNNY 64 52 63 S8 29.89S Bridgeport CLOUDY 64 54 69 SE10 29.88S Meriden CLOUDY 68 53 58 VRB5 29.87S New Haven CLOUDY 65 55 70 S9 29.88S Chester N/A 64 52 63 S7 29.89S Groton PTSUNNY 62 51 67 S8 29.89R Wilimantic CLOUDY 69 51 52 VRB7 29.88S IN RI CITY SKY/WX TMP DP RH WIND PRES REMARKS Providence PTSUNNY 66 52 60 S9 29.88S Block Island CLOUDY 64 49 57 W9 29.90S Westerly PTSUNNY 65 49 56 S9 29.90S IN MA CITY SKY/WX TMP DP RH WIND PRES REMARKS Boston PTSUNNY 59 49 69 E13 29.89S Worcester CLOUDY 65 46 50 S3 29.88S Westfield CLOUDY 68 51 54 S5 29.86F Provincetown SUNNY 58 45 62 E10 29.91S Nantucket SUNNY 60 47 61 VRB5 29.90S $$ ANZ330-335-338-340-345-350-353-355-272200- COASTAL MARINE OBSERVATIONS STATION/POSITION TIME SKY/WX TEMP WIND PRES VSBY WAVE AIR SEA DIR/SP/G HT/PER (UTC) (F) (DEG/KT/KT) (MB) (MI) (FT/S) NY HARB ENTRANCE 1950 61 59 210/ 12/ 14 1012.0 2/ 9 20 S FIRE ISLAND 2050 59 59 160/ 6/ 8 1011.8 2/ 6 GREAT SOUTH BAY NOT AVBL 23 SSW MONTAUK P 1950 58 57 1013.2 3/ 7 15 E BARNEGAT LI 2030 60 N/A 2/ 8 HUDSON CANYON 1950 60 61 200/ 2/ 2 1012.6 3/ 8 KINGS POINT 2042 67 59 190/ 8/ 9 1011.3 EXECUTION ROCKS 2045 63 N/A CENTRAL LI SOUND 2000 60 140/ 6/ 8 N/A 0 EASTERN LI SOUND NOT AVBL ROBBINS REEF 2042 63 160/ 12/ 12 1011.8 $$ >>>>>>>>>>>>>>>>>>>>>>>>>>>> KEY <<<<<<<<<<<<<<<<<<<<<<<<<<< > < > SKY/WX - Sky Condition/Present Weather < > TMP - Temperature in Fahrenheit < > DP - Dew Point in Fahrenheit < > RH - Relative Humidity in Percent < > WIND - Direction (from) and Speed in MPH < > PRES - Mean Sea Level Pressure (inches of Hg) < > WCI - Wind Chill Index < > VSB - VISIBILITY IN MILES < > HX - HEAT INDEX < > TC - TEMPERATURE IN CELSIUS < > VRB - VARIABLE WIND DIRECTION < > < >>>>>>>>>>>>>>>>>>>>>>>>>>>> KEY <<<<<<<<<<<<<<<<<<<<<<<<<<<

USA.gov is the U.S. government's official web portal to all federal, state and local government web resources and services.